CAPE
0 0 0 0 0 0 0 0 0 0 0 0 0 0 8 32 113 274 372 477 545 613 386 124 112 167 132 457 1130 830 707 317 516 452 0 0 0 0 0 0 0 0 0
0 0 0 0 0 0 0 0 0 0 0 0 0 0 11 22 26 43 115 305 575 554 476 279 365 309 345 610 998 1257 557 60 189 199 1 0 0 0 0 0 0 0 0
0 0 0 0 0 0 0 0 0 0 0 0 0 0 0 0 1 5 29 104 185 366 1043 1392 1093 964 1196 1673 1683 1270 394 96 15 10 3 0 0 0 0 0 0 0 0
0 0 0 0 0 0 0 0 0 0 0 0 0 0 0 0 15 21 8 15 160 249 467 786 1678 1954 1957 1829 1689 1067 146 66 28 10 0 0 0 0 0 0 0 0 0
0 0 0 0 0 0 0 0 0 0 0 0 0 0 0 0 0 1 3 0 15 26 95 502 933 1359 1627 1872 1758 1110 178 102 9 0 0 0 0 1 0 0 0 0 0
0 0 0 0 0 0 0 0 0 0 0 0 0 0 0 0 0 0 0 0 0 0 0 64 477 989 994 417 377 970 234 74 55 6 0 0 0 0 0 0 0 0 1
0 0 0 0 0 0 0 0 0 0 0 0 0 0 0 0 0 0 0 0 0 0 0 8 122 504 1172 1203 238 1 5 25 77 41 0 0 0 0 0 0 0 0 0
0 0 0 0 0 0 0 0 0 0 0 0 0 0 0 0 0 0 0 0 0 0 0 3 70 377 882 845 366 36 1 1 0 0 0 0 0 0 0 0 0 0 0
0 0 0 0 0 0 0 0 0 0 0 0 0 0 0 0 0 0 0 0 0 0 0 24 288 686 732 73 92 13 0 1 3 1 1 0 0 0 0 0 0 0 1
0 0 0 0 0 0 0 0 0 0 0 0 0 0 0 0 0 0 0 0 0 3 8 105 307 194 2 5 60 0 0 0 0 1 1 0 0 1 0 0 0 0 0
0 0 0 0 0 0 0 0 0 0 0 0 0 0 0 0 0 4 0 0 0 0 0 139 138 2 3 0 30 3 1 0 0 0 0 0 1 0 0 0 0 0 1
2 0 0 0 0 0 0 0 0 0 0 0 0 0 0 0 0 0 0 1 0 0 0 43 120 2 1 2 0 0 0 0 0 0 0 0 1 1 1 0 0 0 0
5 8 0 0 0 0 0 0 0 0 0 0 0 0 0 0 0 11 2 0 0 0 1 27 7 1 1 1 1 2 1 0 0 0 0 0 0 0 0 0 0 0 0
7 7 3 9 1 0 0 0 0 0 0 0 0 0 0 0 0 0 0 0 1 1 1 1 0 1 0 1 2 0 0 0 0 0 0 0 0 0 0 0 0 0 0
31 19 10 17 4 3 6 3 0 0 0 0 0 0 0 0 0 13 1 0 1 0 1 1 1 0 1 1 1 0 1 0 0 0 0 1 0 0 0 0 0 0 0
27 17 2 5 15 17 23 4 0 2 2 0 0 0 10 18 20 17 1 0 0 1 1 1 1 0 0 0 0 0 1 0 0 0 0 0 0 0 0 0 0 0 0
21 23 26 20 20 23 16 9 2 0 0 0 0 1 0 0 0 3 2 1 2 1 0 0 0 0 0 0 0 0 0 0 0 0 0 0 0 1 1 1 0 0 1
18 8 29 12 6 11 34 26 3 0 1 0 0 0 0 0 1 0 1 1 0 1 0 0 0 0 0 0 0 0 0 0 0 0 0 0 0 0 0 1 1 3 0
12 21 5 6 20 4 19 1 1 2 2 0 0 1 0 1 1 0 0 1 3 1 0 0 0 0 0 0 0 0 0 0 0 0 0 0 0 0 0 0 0 0 0
13 10 2 1 7 33 27 19 0 0 0 2 0 0 0 0 1 1 2 2 0 0 0 0 0 0 0 0 0 0 0 0 0 0 0 0 0 3 0 0 0 0 0
3 12 5 22 6 13 31 14 0 2 4 1 0 0 0 3 2 6 1 0 0 0 0 0 0 0 0 0 0 0 0 0 0 2 3 2 4 8 3 1 0 0 0
5 8 2 1 18 8 13 57 67 19 19 1 2 1 2 13 5 4 0 0 0 0 0 0 0 0 0 0 0 0 0 0 2 2 0 2 1 1 2 0 0 0 0
7 6 8 1 1 4 18 28 13 1 1 1 0 0 3 0 1 0 0 0 0 0 0 0 0 0 0 0 0 0 0 5 8 6 3 0 0 0 0 0 0 0 0
6 19 26 28 27 4 3 4 2 11 4 4 2 1 0 0 0 0 0 0 0 0 0 0 0 0 0 0 0 0 0 0 0 0 0 0 0 0 0 0 0 0 0
1 1 4 3 1 3 13 5 1 1 0 0 0 0 1 1 0 0 0 0 0 0 0 0 0 0 0 0 0 0 0 0 0 0 0 0 0 0 0 0 0 0 0
1 1 1 1 2 0 0 0 0 0 0 2 0 0 0 0 0 0 0 0 0 0 0 0 0 0 0 0 0 0 0 0 0 0 0 0 0 0 0 0 0 0 0
CIN
0 0 0 0 0 0 0 0 0 0 0 0 0 0 -258 -214 -192 -141 -117 -107 -62 -69 -152 -239 -203 -169 -109 -74 -22 -99 -117 -121 -46 -127 -22 0 0 0 0 0 0 0 0
0 0 0 0 0 0 0 0 0 0 0 0 0 0 -230 -196 -162 -174 -151 -92 -43 -91 -118 -147 -147 -124 -164 -137 -106 -107 -133 -259 -129 -162 -18 0 0 0 0 0 0 0 0
0 0 0 0 0 0 0 0 0 0 0 0 0 0 0 -14 -218 -252 -141 -111 -120 -73 -11 -1 -34 -47 -71 -62 -55 -62 -150 -275 -313 -335 -235 0 0 0 0 0 0 0 0
0 0 0 0 0 0 0 0 0 0 0 0 0 0 0 0 -228 -238 -246 -148 -112 -69 -37 -27 -3 -2 -4 -17 -16 -61 -253 -263 -304 -333 0 0 0 0 0 0 0 0 0
0 0 0 0 0 0 0 0 0 0 0 0 0 0 0 0 0 -90 -318 -37 -247 -208 -119 -22 -12 -21 -19 -8 -9 -59 -226 -254 -374 0 0 0 0 0 0 0 0 0 0
0 0 0 0 0 0 0 0 0 0 0 0 0 0 0 0 0 0 0 0 0 0 0 -125 -36 -25 -81 -232 -234 -116 -245 -293 -297 -362 0 0 0 0 0 0 0 0 0
0 0 0 0 0 0 0 0 0 0 0 0 0 0 0 0 0 0 0 0 0 0 0 -282 -162 -82 -51 -59 -164 0 -373 -305 -354 -351 0 0 0 0 0 0 0 0 0
0 0 0 0 0 0 0 0 0 0 0 0 0 0 0 0 0 0 0 0 0 0 0 -404 -188 -96 -57 -91 -205 -415 0 0 0 0 0 0 0 0 0 0 0 0 0
0 0 0 0 0 0 0 0 0 0 0 0 0 0 0 0 0 0 0 0 0 0 0 -231 -70 -54 -86 -326 -278 -328 0 0 0 0 0 0 0 0 0 0 0 0 0
0 0 0 0 0 0 0 0 0 0 0 0 0 0 0 0 0 0 0 0 0 -86 -247 -109 -93 -179 0 -95 -296 0 -27 0 0 0 0 0 0 0 0 0 0 0 0
0 0 0 0 0 0 0 0 0 0 0 0 0 0 0 0 0 -81 0 0 0 0 0 -68 -135 0 0 0 -306 -332 -178 0 0 0 0 0 0 0 0 0 0 0 -42
-4 -1 0 0 0 0 0 0 0 0 0 0 0 0 0 0 0 -18 0 0 0 0 0 -115 -158 0 0 0 0 0 0 0 0 0 0 0 0 0 0 0 0 0 0
-2 -1 -1 0 0 0 0 0 0 0 0 0 0 0 0 0 0 -85 0 0 0 0 0 -159 -21 0 0 0 0 0 0 0 0 0 0 0 0 0 0 0 0 0 0
-3 -2 -2 -1 -8 -2 0 0 0 0 0 0 0 0 0 0 0 0 0 0 0 0 0 0 0 0 0 0 0 0 0 0 0 0 0 0 0 0 0 0 0 0 0
-3 -1 -1 -2 -15 -13 -9 -13 0 0 0 0 0 0 0 0 0 -155 -13 0 0 0 0 0 0 0 0 0 0 0 0 0 0 0 0 0 0 0 0 0 0 0 0
0 -2 -4 -3 -6 -8 -4 -12 -2 -21 -30 0 0 0 -20 -17 -54 -173 -7 0 0 0 0 0 0 0 0 0 0 0 0 0 0 0 0 0 0 0 0 0 0 0 0
-2 -3 -4 -1 -2 -1 -1 -3 -2 0 0 0 0 0 0 0 0 0 0 0 0 0 0 0 0 0 0 0 0 0 0 0 0 0 0 0 0 -74 -83 -72 0 0 -63
-2 -3 -3 -1 -2 -3 -1 0 -1 0 0 0 0 0 0 0 0 0 0 0 0 0 0 0 0 0 0 0 0 0 0 0 0 0 0 -22 -55 -27 0 -68 -83 -75 -15
0 0 -1 -1 -1 -2 -1 -1 0 0 0 0 0 0 0 0 0 0 0 0 0 0 0 0 0 0 0 0 0 0 0 0 0 0 0 -41 0 0 0 -52 0 0 0
-1 0 -4 -1 -2 -2 -1 0 0 0 0 0 0 0 0 0 0 0 0 0 0 0 0 0 0 0 0 0 0 0 0 0 0 0 0 0 0 -111 0 0 0 0 0
-1 -3 -1 -2 0 -1 0 0 0 0 0 -7 0 0 0 0 0 0 0 0 0 0 0 0 0 0 0 0 0 0 0 0 0 -111 -117 -113 -113 -102 -108 -115 0 0 0
0 0 0 0 -3 0 -4 -39 -38 -87 -80 0 0 0 0 -99 -43 -85 0 0 0 0 0 0 0 0 0 0 0 0 0 -38 -121 -115 -13 -91 -72 -106 -106 -43 0 0 0
0 0 0 0 0 -7 -8 -1 -2 0 0 0 0 0 -27 0 0 0 0 0 0 0 0 0 0 0 0 0 0 0 -7 -98 -104 -114 -102 -90 0 0 0 0 0 0 0
-7 -10 0 0 -1 -11 -14 -4 -2 -1 0 0 0 0 0 0 0 0 0 0 0 0 0 0 0 0 0 0 0 0 0 0 0 0 0 0 0 0 0 0 0 0 0
0 0 -2 0 0 -1 0 -4 0 0 0 0 0 0 0 0 0 0 0 0 0 0 0 0 0 0 0 0 0 0 0 0 0 0 0 0 0 0 0 0 0 0 0
0 0 0 0 0 0 0 0 0 0 0 0 0 0 0 0 0 0 0 0 0 0 0 0 0 0 0 0 0 0 0 0 0 0 0 0 0 0 0 0 0 0 0
Wind_Speed
8 7 7 7 7 4 3 2 2 1 3 5 5 5 6 6 5 5 6 7 8 9 5 7 11 12 8 7 7 7 5 6 9 6 3 2 1 3 3 4 3 3 1
8 7 8 7 6 6 6 6 6 6 5 6 5 5 6 6 6 5 5 7 7 7 8 8 12 7 13 9 6 7 6 8 7 10 4 3 1 1 3 3 2 2 1
3 6 7 7 7 8 7 6 5 4 4 4 5 6 6 6 6 6 6 7 7 9 10 11 12 9 11 7 7 8 6 5 6 4 3 1 0 2 3 2 1 2 0
6 5 6 7 8 7 6 5 4 4 3 2 3 4 6 6 6 7 6 7 7 9 10 13 12 11 12 9 9 9 7 6 6 3 3 3 2 1 3 3 2 1 1
6 7 7 5 5 6 6 6 5 3 3 3 5 4 6 6 6 7 7 7 7 8 8 12 13 13 15 13 8 8 8 6 4 4 3 2 3 3 4 3 2 1 1
6 7 8 9 8 8 7 7 7 5 5 4 5 5 7 8 12 14 11 6 6 7 10 12 12 14 15 15 16 12 11 9 8 5 4 4 5 4 4 4 4 2 2
7 8 9 9 11 11 9 7 6 6 6 6 6 6 8 10 14 15 15 5 6 7 8 11 12 10 10 11 11 11 10 12 8 11 6 6 5 7 7 5 4 4 4
12 12 14 12 13 8 7 7 7 6 7 7 7 7 8 9 14 15 15 6 6 7 10 12 12 14 10 10 9 7 7 6 4 4 6 6 5 6 7 6 6 4 2
17 15 11 10 11 9 10 9 8 6 6 7 7 8 7 8 13 15 11 5 5 8 9 10 12 12 9 11 7 7 6 2 2 6 5 4 6 8 8 6 4 4 2
17 17 16 14 15 14 13 11 8 6 9 8 10 7 10 10 13 14 9 3 4 4 6 8 12 10 13 14 10 9 8 5 5 4 4 6 5 3 6 4 6 6 3
18 18 20 18 18 17 14 11 9 8 8 9 8 8 8 9 11 12 10 3 4 4 5 7 7 11 17 15 11 9 7 7 5 5 4 4 3 4 4 3 5 4 3
18 18 15 14 13 12 10 9 7 7 7 9 8 8 6 8 12 13 12 11 5 4 7 7 8 14 15 10 9 13 12 8 5 4 4 3 2 3 3 4 4 3 3
19 18 18 18 13 13 11 8 5 6 9 9 7 8 7 5 6 13 10 13 9 4 7 10 6 10 7 8 5 14 11 6 5 5 4 3 2 3 4 3 4 2 1
18 17 14 14 12 10 7 7 8 8 9 8 8 8 8 8 8 6 5 6 6 6 5 5 7 8 3 8 6 7 5 6 6 6 4 3 3 3 2 2 2 2 2
15 14 15 11 12 11 10 10 10 11 10 9 9 8 8 9 9 9 8 6 5 7 7 6 7 7 4 5 5 4 4 5 5 4 4 4 3 3 2 2 2 2 2
14 12 9 9 8 8 8 8 7 10 13 15 13 11 8 12 10 10 12 11 12 15 7 8 8 8 8 6 7 5 3 4 4 4 4 4 4 4 3 2 2 2 2
12 11 9 9 9 9 8 8 8 6 10 14 12 13 10 10 10 10 11 13 15 15 6 9 10 9 8 7 8 8 5 4 5 4 4 4 4 3 4 3 3 2 2
12 11 7 7 7 8 8 8 8 7 8 8 13 14 17 16 12 12 9 11 8 6 7 9 9 8 7 7 7 5 4 4 4 4 4 4 4 4 3 3 3 3 2
7 7 8 8 8 8 8 8 8 8 7 6 4 5 9 10 12 15 20 9 11 9 8 7 8 8 8 7 6 5 5 5 4 4 4 4 4 4 3 3 3 3 4
9 10 8 5 4 7 7 7 8 8 7 7 7 7 6 7 6 6 9 8 7 8 8 9 8 8 8 7 6 5 5 4 4 4 4 4 4 4 4 4 4 3 2
4 4 7 7 7 7 7 7 7 7 7 6 3 5 8 8 10 11 8 7 7 7 7 7 7 7 6 6 6 6 5 5 4 4 5 4 4 4 4 4 4 4 4
7 7 7 8 5 7 7 6 7 7 6 6 5 5 8 8 8 9 8 8 6 6 6 7 6 6 6 7 6 6 6 6 4 5 5 5 5 5 4 4 4 4 4
10 11 9 10 10 9 8 7 7 7 8 7 8 5 8 8 7 7 8 7 6 6 6 6 7 6 5 5 4 6 5 5 4 5 7 6 5 5 5 5 5 5 6
6 4 7 8 7 9 8 8 8 9 8 6 7 7 8 9 8 9 8 7 7 7 6 6 6 8 7 5 5 5 5 5 4 7 9 8 7 7 7 8 7 9 8
8 8 8 8 8 8 10 9 9 10 10 11 8 9 10 9 9 8 8 7 8 8 8 7 7 8 9 9 8 8 8 9 10 9 9 11 12 11 9 8 9 9 9
9 9 8 7 8 8 8 10 10 10 10 9 9 9 9 9 8 9 8 8 8 8 9 7 8 12 11 9 10 11 12 12 12 12 11 10 11 9 9 11 12 9 9
Wind_Direction
185 190 200 206 208 202 202 241 248 272 257 265 238 239 251 246 235 215 236 261 260 262 244 253 256 251 236 224 219 224 223 199 242 273 240 249 118 133 131 98 118 110 23
191 191 202 192 198 205 205 213 204 216 210 219 237 257 261 255 261 251 264 276 254 269 270 248 240 246 259 257 231 239 212 209 218 241 219 216 162 202 103 105 112 97 121
275 237 206 209 196 212 210 196 185 187 213 212 204 219 229 238 250 244 237 260 271 274 269 257 254 236 253 254 235 239 212 203 204 205 212 89 217 122 84 50 140 99 118
173 211 244 209 196 192 189 195 189 190 225 267 246 244 247 243 236 245 239 252 263 271 271 275 274 267 258 247 235 226 203 200 208 197 150 169 173 168 122 153 209 211 191
195 169 200 218 227 192 199 204 217 234 255 249 265 266 258 253 256 239 236 235 243 263 267 271 269 262 251 239 233 229 197 204 155 165 163 170 178 164 183 162 163 162 241
218 213 197 193 198 207 210 214 206 207 226 246 267 269 278 277 267 242 234 233 244 257 275 274 267 261 261 246 231 217 195 182 182 170 172 192 201 179 133 159 138 148 226
232 247 236 214 214 212 206 203 212 227 242 253 250 250 263 270 265 247 242 230 236 251 263 275 277 272 259 258 245 231 212 216 182 174 174 198 171 184 139 157 163 161 194
275 258 244 228 224 208 202 206 211 206 215 221 230 235 254 266 255 245 245 242 250 249 254 261 263 271 260 239 232 206 204 206 184 180 179 176 183 161 171 164 163 144 83
257 255 242 223 222 208 217 213 206 204 215 218 229 238 237 250 248 246 248 241 243 254 259 261 259 263 245 216 192 160 119 191 24 77 107 137 175 165 147 115 146 148 178
252 253 251 230 226 221 219 217 207 197 219 226 235 219 229 249 260 243 225 201 243 257 273 265 261 246 180 181 157 149 161 191 165 131 99 78 103 141 158 154 150 164 133
247 251 241 235 226 221 213 204 202 210 221 222 232 236 231 225 251 245 230 209 220 246 268 274 261 201 183 182 150 139 187 153 145 131 110 101 101 136 168 150 167 143 151
235 239 251 233 217 214 206 210 193 200 222 232 231 238 237 234 227 248 239 212 232 230 261 259 240 200 206 170 156 125 159 137 132 122 113 137 154 162 168 175 162 166 186
229 229 229 233 228 213 211 199 197 194 219 219 221 235 239 231 235 228 240 252 235 219 250 251 189 164 158 121 119 151 158 140 133 134 148 168 171 145 120 91 72 119 166
221 218 222 219 207 203 205 207 207 206 213 215 221 228 231 231 229 217 209 243 227 224 173 151 151 140 131 112 104 182 148 144 145 152 153 141 117 110 104 121 122 137 127
218 210 210 207 206 215 216 211 207 217 208 213 214 214 217 226 219 197 191 207 203 197 153 151 153 134 149 117 153 134 122 129 130 138 153 139 121 120 127 145 117 118 115
205 204 209 212 198 203 207 208 222 210 208 222 216 205 223 224 204 205 212 210 184 165 170 173 152 145 143 164 159 137 119 145 151 153 143 130 139 152 154 140 113 131 141
197 193 195 191 190 190 194 198 208 224 221 239 228 223 227 234 210 224 220 208 177 166 181 175 151 155 157 167 154 154 153 163 142 135 129 135 144 146 146 148 132 129 99
192 178 179 171 187 195 197 195 197 198 213 238 230 222 229 231 236 241 196 152 166 216 177 168 156 153 155 157 155 148 142 134 146 136 133 153 154 139 142 145 146 139 120
162 174 186 195 192 188 192 196 205 208 211 216 197 194 226 225 202 193 166 184 178 169 154 157 149 145 160 153 157 140 138 158 142 133 148 153 145 139 154 157 125 101 115
190 185 179 192 190 191 193 193 199 204 206 217 222 221 150 137 161 161 187 164 152 151 151 145 144 150 153 150 133 134 135 132 131 142 153 154 162 152 133 125 127 130 122
201 191 189 191 197 210 196 191 200 203 204 210 173 154 172 164 147 169 142 140 137 140 130 133 148 142 129 119 133 134 132 135 139 144 137 140 136 125 120 122 126 123 133
198 197 194 208 200 193 204 194 183 175 152 140 141 147 166 132 132 134 129 137 145 136 133 138 129 123 132 140 136 133 139 147 146 140 124 105 108 113 116 112 100 95 89
211 210 182 196 206 201 189 167 156 137 138 152 133 142 129 116 109 113 113 106 102 97 100 110 109 100 99 109 124 136 138 146 140 127 122 119 116 106 98 92 87 76 80
91 89 105 93 115 115 117 119 127 129 138 127 116 112 109 99 98 89 84 83 88 82 83 94 105 113 108 102 104 109 112 113 107 109 112 107 100 91 91 86 85 88 89
74 81 89 90 90 102 114 111 98 92 90 90 97 99 87 90 87 84 84 85 84 87 78 85 92 97 100 108 106 104 105 97 97 97 95 99 99 96 97 95 99 93 91
59 65 67 71 79 81 91 92 90 94 96 97 91 90 94 93 88 88 87 92 95 86 87 81 82 91 87 81 92 101 99 96 95 97 103 103 102 96 97 98 92 89 83